Starlink 6321

operational
NORAD ID: 57340 Int'l Des: 2023-099 Owner: SPXS Country: US Constellation: starlink
LEOCIRCULAR

Über Starlink 6321

Beschreibung wird geladen...

Live-Position

3D-Globus wird geladen...

Nächste Überflüge

Höhenverlauf

Altitude vs Time

uPlot chart will show altitude changes over time

Zweizeiliger Elementsatz

1 57340U 23099N 25350.36597387 .00000846 00000-0 77700-4 0 9998
2 57340 43.0049 341.6333 0001191 263.4550 96.6157 15.02537016133585
Epoch: 16. Dez. 2025 • Age: 22 hours

Aktueller Status

Höhe 570.2 km
Geschwindigkeit 7.58 km/s
Subsatellitenpunkt -39.62°S, 86.29°E
Startdatum 16. Juli 2023
Alter 2.4 years
Typ internet

Technische Details

Klassifizierung Payload
Masse 305.00 kg
Trockenmasse 290.00 kg
Gesamtmasse 305.00 kg
Länge 0.20 m
Durchmesser 2.80 m
Spannweite 9.00 m
Form Box + pan
Hersteller SPXS
Bus-Typ Starlink
Phasenstatus In Orbit
Besitzer/Staat SPXS/US

Große Konstellationen

Loading constellations...